Year,Month,Day,Hour,Minute,Value (Times are PST for temperature in C)
2013,06,23,00,00,15.70
2013,06,23,00,01,15.60
2013,06,23,00,02,15.60
2013,06,23,00,03,15.60
2013,06,23,00,04,15.60
2013,06,23,00,05,15.50
2013,06,23,00,06,15.50
2013,06,23,00,07,15.50
2013,06,23,00,08,15.50
2013,06,23,00,09,15.50
2013,06,23,00,10,15.50
2013,06,23,00,11,15.50
2013,06,23,00,12,15.50
2013,06,23,00,13,15.50
2013,06,23,00,14,15.50
2013,06,23,00,15,15.40
2013,06,23,00,16,15.40
2013,06,23,00,17,15.40
2013,06,23,00,18,15.40
2013,06,23,00,19,15.40
2013,06,23,00,20,15.40
2013,06,23,00,21,15.40
2013,06,23,00,22,15.40
2013,06,23,00,23,15.40
2013,06,23,00,24,15.30
2013,06,23,00,25,15.30
2013,06,23,00,26,15.30
2013,06,23,00,27,15.30
2013,06,23,00,28,15.30
2013,06,23,00,29,15.30
2013,06,23,00,30,15.30
2013,06,23,00,31,15.30
2013,06,23,00,32,15.30
2013,06,23,00,33,15.30
2013,06,23,00,34,15.30
2013,06,23,00,35,15.30
2013,06,23,00,36,15.30
2013,06,23,00,37,15.30
2013,06,23,00,38,15.20
2013,06,23,00,39,15.20
2013,06,23,00,40,15.20
2013,06,23,00,41,15.20
2013,06,23,00,42,15.20
2013,06,23,00,43,15.20
2013,06,23,00,44,15.20
2013,06,23,00,45,15.20
2013,06,23,00,46,15.20
2013,06,23,00,47,15.20
2013,06,23,00,48,15.20
2013,06,23,00,49,15.20
2013,06,23,00,50,15.20
2013,06,23,00,51,15.20
2013,06,23,00,52,15.20
2013,06,23,00,53,15.20
2013,06,23,00,54,15.20
2013,06,23,00,55,15.20
2013,06,23,00,56,15.20
2013,06,23,00,57,15.20
2013,06,23,00,58,15.20
2013,06,23,00,59,15.10
2013,06,23,01,00,15.10
2013,06,23,01,01,15.10
2013,06,23,01,02,15.10
2013,06,23,01,03,15.10
2013,06,23,01,04,15.10
2013,06,23,01,05,15.10
2013,06,23,01,06,15.10
2013,06,23,01,07,15.10
2013,06,23,01,08,15.10
2013,06,23,01,09,15.10
2013,06,23,01,10,15.10
2013,06,23,01,11,15.10
2013,06,23,01,12,15.10
2013,06,23,01,13,15.10
2013,06,23,01,14,15.10
2013,06,23,01,15,15.10
2013,06,23,01,16,15.10
2013,06,23,01,17,15.10
2013,06,23,01,18,15.10
2013,06,23,01,19,15.10
2013,06,23,01,20,15.10
2013,06,23,01,21,15.10
2013,06,23,01,22,15.10
2013,06,23,01,23,15.10
2013,06,23,01,24,15.10
2013,06,23,01,25,15.10
2013,06,23,01,26,15.10
2013,06,23,01,27,15.10
2013,06,23,01,28,15.10
2013,06,23,01,29,15.10
2013,06,23,01,30,15.10
2013,06,23,01,31,15.10
2013,06,23,01,32,15.10
2013,06,23,01,33,15.10
2013,06,23,01,34,15.10
2013,06,23,01,35,15.10
2013,06,23,01,36,15.10
2013,06,23,01,37,15.10
2013,06,23,01,38,15.10
2013,06,23,01,39,15.20
2013,06,23,01,40,15.20
2013,06,23,01,41,15.20
2013,06,23,01,42,15.20
2013,06,23,01,43,15.20
2013,06,23,01,44,15.30
2013,06,23,01,45,15.30
2013,06,23,01,46,15.30
2013,06,23,01,47,15.30
2013,06,23,01,48,15.30
2013,06,23,01,49,15.30
2013,06,23,01,50,15.30
2013,06,23,01,51,15.40
2013,06,23,01,52,15.40
2013,06,23,01,53,15.40
2013,06,23,01,54,15.40
2013,06,23,01,55,15.50
2013,06,23,01,56,15.50
2013,06,23,01,57,15.50
2013,06,23,01,58,15.50
2013,06,23,01,59,15.60
2013,06,23,02,00,15.60
2013,06,23,02,01,15.60
2013,06,23,02,02,15.60
2013,06,23,02,03,15.70
2013,06,23,02,04,15.70
2013,06,23,02,05,15.70
2013,06,23,02,06,15.70
2013,06,23,02,07,15.80
2013,06,23,02,08,15.80
2013,06,23,02,09,15.80
2013,06,23,02,10,15.80
2013,06,23,02,11,15.80
2013,06,23,02,12,15.80
2013,06,23,02,13,15.80
2013,06,23,02,14,15.90
2013,06,23,02,15,15.90
2013,06,23,02,16,15.90
2013,06,23,02,17,15.90
2013,06,23,02,18,15.90
2013,06,23,02,19,16.00
2013,06,23,02,20,16.10
2013,06,23,02,21,16.10
2013,06,23,02,22,16.10
2013,06,23,02,23,16.10
2013,06,23,02,24,16.10
2013,06,23,02,25,16.10
2013,06,23,02,26,16.10
2013,06,23,02,27,16.10
2013,06,23,02,28,16.10
2013,06,23,02,29,16.10
2013,06,23,02,30,16.10
2013,06,23,02,31,16.10
2013,06,23,02,32,16.10
2013,06,23,02,33,16.10
2013,06,23,02,34,16.10
2013,06,23,02,35,16.10
2013,06,23,02,36,16.10
2013,06,23,02,37,16.10
2013,06,23,02,38,16.10
2013,06,23,02,39,16.20
2013,06,23,02,40,16.20
2013,06,23,02,41,16.20
2013,06,23,02,42,16.20
2013,06,23,02,43,16.20
2013,06,23,02,44,16.20
2013,06,23,02,45,16.20
2013,06,23,02,46,16.20
2013,06,23,02,47,16.20
2013,06,23,02,48,16.20
2013,06,23,02,49,16.20
2013,06,23,02,50,16.20
2013,06,23,02,51,16.20
2013,06,23,02,52,16.20
2013,06,23,02,53,16.20
2013,06,23,02,54,16.20
2013,06,23,02,55,16.30
2013,06,23,02,56,16.30
2013,06,23,02,57,16.30
2013,06,23,02,58,16.30
2013,06,23,02,59,16.30
2013,06,23,03,00,16.30
2013,06,23,03,01,16.30
2013,06,23,03,02,16.30
2013,06,23,03,03,16.30
2013,06,23,03,04,16.30
2013,06,23,03,05,16.30
2013,06,23,03,06,16.30
2013,06,23,03,07,16.30
2013,06,23,03,08,16.30
2013,06,23,03,09,16.30
2013,06,23,03,10,16.30
2013,06,23,03,11,16.30
2013,06,23,03,12,16.30
2013,06,23,03,13,16.30
2013,06,23,03,14,16.30
2013,06,23,03,15,16.30
2013,06,23,03,16,16.30
2013,06,23,03,17,16.30
2013,06,23,03,18,16.30
2013,06,23,03,19,16.30
2013,06,23,03,20,16.30
2013,06,23,03,21,16.30
2013,06,23,03,22,16.30
2013,06,23,03,23,16.40
2013,06,23,03,24,16.40
2013,06,23,03,25,16.30
2013,06,23,03,26,16.30
2013,06,23,03,27,16.30
2013,06,23,03,28,16.30
2013,06,23,03,29,16.30
2013,06,23,03,30,16.30
2013,06,23,03,31,16.30
2013,06,23,03,32,16.30
2013,06,23,03,33,16.30
2013,06,23,03,34,16.30
2013,06,23,03,35,16.40
2013,06,23,03,36,16.40
2013,06,23,03,37,16.40
2013,06,23,03,38,16.40
2013,06,23,03,39,16.40
2013,06,23,03,40,16.40
2013,06,23,03,41,16.40
2013,06,23,03,42,16.40
2013,06,23,03,43,16.40
2013,06,23,03,44,16.40
2013,06,23,03,45,16.40
2013,06,23,03,46,16.40
2013,06,23,03,47,16.40
2013,06,23,03,48,16.40
2013,06,23,03,49,16.40
2013,06,23,03,50,16.40
2013,06,23,03,51,16.40
2013,06,23,03,52,16.40
2013,06,23,03,53,16.40
2013,06,23,03,54,16.40
2013,06,23,03,55,16.40
2013,06,23,03,56,16.40
2013,06,23,03,57,16.40
2013,06,23,03,58,16.40
2013,06,23,03,59,16.40
2013,06,23,04,00,16.40
2013,06,23,04,01,16.40
2013,06,23,04,02,16.30
2013,06,23,04,03,16.40
2013,06,23,04,04,16.40
2013,06,23,04,05,16.30
2013,06,23,04,06,16.30
2013,06,23,04,07,16.30
2013,06,23,04,08,16.30
2013,06,23,04,09,16.30
2013,06,23,04,10,16.30
2013,06,23,04,11,16.30
2013,06,23,04,12,16.30
2013,06,23,04,13,16.30
2013,06,23,04,14,16.30
2013,06,23,04,15,16.30
2013,06,23,04,16,16.30
2013,06,23,04,17,16.30
2013,06,23,04,18,16.30
2013,06,23,04,19,16.30
2013,06,23,04,20,16.30
2013,06,23,04,21,16.30
2013,06,23,04,22,16.30
2013,06,23,04,23,16.30
2013,06,23,04,24,16.30
2013,06,23,04,25,16.30
2013,06,23,04,26,16.30
2013,06,23,04,27,16.30
2013,06,23,04,28,16.30
2013,06,23,04,29,16.30
2013,06,23,04,30,16.30
2013,06,23,04,31,16.30
2013,06,23,04,32,16.30
2013,06,23,04,33,16.30
2013,06,23,04,34,16.30
2013,06,23,04,35,16.30
2013,06,23,04,36,16.30
2013,06,23,04,37,16.30
2013,06,23,04,38,16.30
2013,06,23,04,39,16.30
2013,06,23,04,40,16.30
2013,06,23,04,41,16.30
2013,06,23,04,42,16.30
2013,06,23,04,43,16.30
2013,06,23,04,44,16.30
2013,06,23,04,45,16.30
2013,06,23,04,46,16.30
2013,06,23,04,47,16.30
2013,06,23,04,48,16.30
2013,06,23,04,49,16.30
2013,06,23,04,50,16.30
2013,06,23,04,51,16.30
2013,06,23,04,52,16.30
2013,06,23,04,53,16.30
2013,06,23,04,54,16.30
2013,06,23,04,55,16.30
2013,06,23,04,56,16.30
2013,06,23,04,57,16.30
2013,06,23,04,58,16.30
2013,06,23,04,59,16.30
2013,06,23,05,00,16.30
2013,06,23,05,01,16.30
2013,06,23,05,02,16.30
2013,06,23,05,03,16.30
2013,06,23,05,04,16.30
2013,06,23,05,05,16.30
2013,06,23,05,06,16.30
2013,06,23,05,07,16.30
2013,06,23,05,08,16.30
2013,06,23,05,09,16.30
2013,06,23,05,10,16.30
2013,06,23,05,11,16.30
2013,06,23,05,12,16.30
2013,06,23,05,13,16.30
2013,06,23,05,14,16.30
2013,06,23,05,15,16.30
2013,06,23,05,16,16.20
2013,06,23,05,17,16.20
2013,06,23,05,18,16.10
2013,06,23,05,19,16.10
2013,06,23,05,20,16.10
2013,06,23,05,21,16.10
2013,06,23,05,22,16.10
2013,06,23,05,23,16.10
2013,06,23,05,24,16.00
2013,06,23,05,25,15.90
2013,06,23,05,26,15.90
2013,06,23,05,27,15.90
2013,06,23,05,28,15.90
2013,06,23,05,29,15.90
2013,06,23,05,30,15.90
2013,06,23,05,31,15.90
2013,06,23,05,32,15.90
2013,06,23,05,33,15.90
2013,06,23,05,34,15.90
2013,06,23,05,35,15.90
2013,06,23,05,36,15.90
2013,06,23,05,37,15.90
2013,06,23,05,38,15.90
2013,06,23,05,39,15.90
2013,06,23,05,40,15.90
2013,06,23,05,41,15.90
2013,06,23,05,42,16.10
2013,06,23,05,43,16.10
2013,06,23,05,44,16.10
2013,06,23,05,45,16.10
2013,06,23,05,46,16.20
2013,06,23,05,47,16.20
2013,06,23,05,48,16.20
2013,06,23,05,49,16.20
2013,06,23,05,50,16.20
2013,06,23,05,51,16.30
2013,06,23,05,52,16.30
2013,06,23,05,53,16.30
2013,06,23,05,54,16.30
2013,06,23,05,55,16.30
2013,06,23,05,56,16.30
2013,06,23,05,57,16.30
2013,06,23,05,58,16.30
2013,06,23,05,59,16.30
2013,06,23,06,00,16.30
2013,06,23,06,01,16.30
2013,06,23,06,02,16.40
2013,06,23,06,03,16.40
2013,06,23,06,04,16.40
2013,06,23,06,05,16.40
2013,06,23,06,06,16.40
2013,06,23,06,07,16.40
2013,06,23,06,08,16.40
2013,06,23,06,09,16.40
2013,06,23,06,10,16.40
2013,06,23,06,11,16.40
2013,06,23,06,12,16.40
2013,06,23,06,13,16.40
2013,06,23,06,14,16.40
2013,06,23,06,15,16.40
2013,06,23,06,16,16.40
2013,06,23,06,17,16.40
2013,06,23,06,18,16.40
2013,06,23,06,19,16.40
2013,06,23,06,20,16.40
2013,06,23,06,21,16.40
2013,06,23,06,22,16.40
2013,06,23,06,23,16.40
2013,06,23,06,24,16.40
2013,06,23,06,25,16.40
2013,06,23,06,26,16.40
2013,06,23,06,27,16.40
2013,06,23,06,28,16.40
2013,06,23,06,29,16.40
2013,06,23,06,30,16.40
2013,06,23,06,31,16.50
2013,06,23,06,32,16.60
2013,06,23,06,33,16.60
2013,06,23,06,34,16.60
2013,06,23,06,35,16.60
2013,06,23,06,36,16.60
2013,06,23,06,37,16.60
2013,06,23,06,38,16.60
2013,06,23,06,39,16.70
2013,06,23,06,40,16.70
2013,06,23,06,41,16.70
2013,06,23,06,42,16.70
2013,06,23,06,43,16.70
2013,06,23,06,44,16.70
2013,06,23,06,45,16.70
2013,06,23,06,46,16.70
2013,06,23,06,47,16.70
2013,06,23,06,48,16.70
2013,06,23,06,49,16.70
2013,06,23,06,50,16.70
2013,06,23,06,51,16.70
2013,06,23,06,52,16.70
2013,06,23,06,53,16.70
2013,06,23,06,54,16.70
2013,06,23,06,55,16.70
2013,06,23,06,56,16.70
2013,06,23,06,57,16.70
2013,06,23,06,58,16.70
2013,06,23,06,59,16.70
2013,06,23,07,00,16.70
2013,06,23,07,01,16.70
2013,06,23,07,02,16.80
2013,06,23,07,03,16.80
2013,06,23,07,04,16.80
2013,06,23,07,05,16.80
2013,06,23,07,06,16.80
2013,06,23,07,07,16.80
2013,06,23,07,08,16.80
2013,06,23,07,09,16.80
2013,06,23,07,10,16.80
2013,06,23,07,11,16.80
2013,06,23,07,12,16.80
2013,06,23,07,13,16.90
2013,06,23,07,14,16.90
2013,06,23,07,15,16.90
2013,06,23,07,16,16.90
2013,06,23,07,17,16.90
2013,06,23,07,18,16.90
2013,06,23,07,19,17.00
2013,06,23,07,20,17.00
2013,06,23,07,21,17.00
2013,06,23,07,22,17.00
2013,06,23,07,23,17.10
2013,06,23,07,24,17.10
2013,06,23,07,25,17.10
2013,06,23,07,26,17.10
2013,06,23,07,27,17.10
2013,06,23,07,28,17.10
2013,06,23,07,29,17.20
2013,06,23,07,30,17.20
2013,06,23,07,31,17.20
2013,06,23,07,32,17.20
2013,06,23,07,33,17.20
2013,06,23,07,34,17.20
2013,06,23,07,35,17.20
2013,06,23,07,36,17.20
2013,06,23,07,37,17.20
2013,06,23,07,38,17.20
2013,06,23,07,39,17.20
2013,06,23,07,40,17.20
2013,06,23,07,41,17.20
2013,06,23,07,42,17.20
2013,06,23,07,43,17.20
2013,06,23,07,44,17.20
2013,06,23,07,45,17.20
2013,06,23,07,46,17.20
2013,06,23,07,47,17.20
2013,06,23,07,48,17.20
2013,06,23,07,49,17.10
2013,06,23,07,50,17.10
2013,06,23,07,51,17.10
2013,06,23,07,52,17.10
2013,06,23,07,53,17.10
2013,06,23,07,54,17.00
2013,06,23,07,55,17.00
2013,06,23,07,56,17.10
2013,06,23,07,57,17.10
2013,06,23,07,58,17.10
2013,06,23,07,59,17.10
2013,06,23,08,00,17.10
2013,06,23,08,01,17.00
2013,06,23,08,02,17.00
2013,06,23,08,03,17.00
2013,06,23,08,04,17.00
2013,06,23,08,05,17.00
2013,06,23,08,06,17.00
2013,06,23,08,07,17.00
2013,06,23,08,08,17.00
2013,06,23,08,09,17.00
2013,06,23,08,10,17.00
2013,06,23,08,11,17.00
2013,06,23,08,12,17.00
2013,06,23,08,13,17.00
2013,06,23,08,14,17.00
2013,06,23,08,15,17.00
2013,06,23,08,16,17.00
2013,06,23,08,17,17.00
2013,06,23,08,18,17.00
2013,06,23,08,19,17.00
2013,06,23,08,20,17.00
2013,06,23,08,21,17.00
2013,06,23,08,22,17.00
2013,06,23,08,23,17.00
2013,06,23,08,24,17.00
2013,06,23,08,25,17.00
2013,06,23,08,26,17.00
2013,06,23,08,27,17.00
2013,06,23,08,28,17.00
2013,06,23,08,29,17.00
2013,06,23,08,30,17.00
2013,06,23,08,31,17.00
2013,06,23,08,32,17.00
2013,06,23,08,33,17.10
2013,06,23,08,34,17.10
2013,06,23,08,35,17.10
2013,06,23,08,36,17.10
2013,06,23,08,37,17.10
2013,06,23,08,38,17.10
2013,06,23,08,39,17.10
2013,06,23,08,40,17.10
2013,06,23,08,41,17.10
2013,06,23,08,42,17.10
2013,06,23,08,43,17.10
2013,06,23,08,44,17.10
2013,06,23,08,45,17.20
2013,06,23,08,46,17.20
2013,06,23,08,47,17.20
2013,06,23,08,48,17.20
2013,06,23,08,49,17.20
2013,06,23,08,50,17.30
2013,06,23,08,51,17.30
2013,06,23,08,52,17.30
2013,06,23,08,53,17.30
2013,06,23,08,54,17.30
2013,06,23,08,55,17.30
2013,06,23,08,56,17.30
2013,06,23,08,57,17.30
2013,06,23,08,58,17.30
2013,06,23,08,59,17.30
2013,06,23,09,00,17.30
2013,06,23,09,01,17.40
2013,06,23,09,02,17.40
2013,06,23,09,03,17.40
2013,06,23,09,04,17.40
2013,06,23,09,05,17.40
2013,06,23,09,06,17.40
2013,06,23,09,07,17.50
2013,06,23,09,08,17.50
2013,06,23,09,09,17.50
2013,06,23,09,10,17.50
2013,06,23,09,11,17.50
2013,06,23,09,12,17.50
2013,06,23,09,13,17.50
2013,06,23,09,14,17.50
2013,06,23,09,15,17.50
2013,06,23,09,16,17.50
2013,06,23,09,17,17.50
2013,06,23,09,18,17.60
2013,06,23,09,19,17.60
2013,06,23,09,20,17.60
2013,06,23,09,21,17.60
2013,06,23,09,22,17.60
2013,06,23,09,23,17.60
2013,06,23,09,24,17.60
2013,06,23,09,25,17.50
2013,06,23,09,26,17.50
2013,06,23,09,27,17.50
2013,06,23,09,28,17.50
2013,06,23,09,29,17.50
2013,06,23,09,30,17.60
2013,06,23,09,31,17.60
2013,06,23,09,32,17.60
2013,06,23,09,33,17.60
2013,06,23,09,34,17.60
2013,06,23,09,35,17.60
2013,06,23,09,36,17.50
2013,06,23,09,37,17.50
2013,06,23,09,38,17.50
2013,06,23,09,39,17.40
2013,06,23,09,40,17.40
2013,06,23,09,41,17.40
2013,06,23,09,42,17.40
2013,06,23,09,43,17.40
2013,06,23,09,44,17.40
2013,06,23,09,45,17.40
2013,06,23,09,46,17.40
2013,06,23,09,47,17.40
2013,06,23,09,48,17.30
2013,06,23,09,49,17.30
2013,06,23,09,50,17.30
2013,06,23,09,51,17.30
2013,06,23,09,52,17.30
2013,06,23,09,53,17.30
2013,06,23,09,54,17.30
2013,06,23,09,55,17.30
2013,06,23,09,56,17.30
2013,06,23,09,57,17.30
2013,06,23,09,58,17.30
2013,06,23,09,59,17.20
2013,06,23,10,00,17.20
2013,06,23,10,01,17.30
2013,06,23,10,02,17.30
2013,06,23,10,03,17.30
2013,06,23,10,04,17.30
2013,06,23,10,05,17.30
2013,06,23,10,06,17.30
2013,06,23,10,07,17.30
2013,06,23,10,08,17.20
2013,06,23,10,09,17.20
2013,06,23,10,10,17.20
2013,06,23,10,11,17.20
2013,06,23,10,12,17.20
2013,06,23,10,13,17.20
2013,06,23,10,14,17.20
2013,06,23,10,15,17.20
2013,06,23,10,16,17.20
2013,06,23,10,17,17.20
2013,06,23,10,18,17.10
2013,06,23,10,19,17.00
2013,06,23,10,20,17.00
2013,06,23,10,21,16.90
2013,06,23,10,22,16.90
2013,06,23,10,23,16.90
2013,06,23,10,24,16.90
2013,06,23,10,25,16.80
2013,06,23,10,26,16.80
2013,06,23,10,27,16.90
2013,06,23,10,28,16.90
2013,06,23,10,29,16.90
2013,06,23,10,30,16.90
2013,06,23,10,31,16.90
2013,06,23,10,32,16.90
2013,06,23,10,33,16.90
2013,06,23,10,34,16.90
2013,06,23,10,35,16.90
2013,06,23,10,36,16.90
2013,06,23,10,37,16.90
2013,06,23,10,38,17.00
2013,06,23,10,39,17.00
2013,06,23,10,40,17.00
2013,06,23,10,41,17.00
2013,06,23,10,42,17.00
2013,06,23,10,43,17.10
2013,06,23,10,44,17.10
2013,06,23,10,45,17.20
2013,06,23,10,46,17.20
2013,06,23,10,47,17.30
2013,06,23,10,48,17.30
2013,06,23,10,49,17.30
2013,06,23,10,50,17.30
2013,06,23,10,51,17.30
2013,06,23,10,52,17.30
2013,06,23,10,53,17.30
2013,06,23,10,54,17.30
2013,06,23,10,55,17.30
2013,06,23,10,56,17.30
2013,06,23,10,57,17.30
2013,06,23,10,58,17.30
2013,06,23,10,59,17.30
2013,06,23,11,00,17.30
2013,06,23,11,01,17.30
2013,06,23,11,02,17.30
2013,06,23,11,03,17.40
2013,06,23,11,04,17.40
2013,06,23,11,05,17.40
2013,06,23,11,06,17.40
2013,06,23,11,07,17.40
2013,06,23,11,08,17.40
2013,06,23,11,09,17.50
2013,06,23,11,10,17.50
2013,06,23,11,11,17.50
2013,06,23,11,12,17.50
2013,06,23,11,13,17.60
2013,06,23,11,14,17.70
2013,06,23,11,15,17.70
2013,06,23,11,16,17.80
2013,06,23,11,17,17.80
2013,06,23,11,18,17.80
2013,06,23,11,19,17.90
2013,06,23,11,20,17.90
2013,06,23,11,21,17.90
2013,06,23,11,22,17.90
2013,06,23,11,23,17.90
2013,06,23,11,24,17.90
2013,06,23,11,25,17.90
2013,06,23,11,26,17.90
2013,06,23,11,27,17.90
2013,06,23,11,28,18.00
2013,06,23,11,29,18.10
2013,06,23,11,30,18.10
2013,06,23,11,31,18.10
2013,06,23,11,32,18.10
2013,06,23,11,33,18.20
2013,06,23,11,34,18.20
2013,06,23,11,35,18.20
2013,06,23,11,36,18.20
2013,06,23,11,37,18.20
2013,06,23,11,38,18.20
2013,06,23,11,39,18.20
2013,06,23,11,40,18.20
2013,06,23,11,41,18.20
2013,06,23,11,42,18.20
2013,06,23,11,43,18.20
2013,06,23,11,44,18.20
2013,06,23,11,45,18.20
2013,06,23,11,46,18.10
2013,06,23,11,47,18.10
2013,06,23,11,48,18.10
2013,06,23,11,49,17.90
2013,06,23,11,50,17.90
2013,06,23,11,51,17.90
2013,06,23,11,52,17.90
2013,06,23,11,53,17.90
2013,06,23,11,54,17.90
2013,06,23,11,55,17.90
2013,06,23,11,56,17.90
2013,06,23,11,57,17.90
2013,06,23,11,58,17.90
2013,06,23,11,59,17.90
2013,06,23,12,00,17.90
2013,06,23,12,01,18.00
2013,06,23,12,02,18.10
2013,06,23,12,03,18.00
2013,06,23,12,04,17.90
2013,06,23,12,05,17.90
2013,06,23,12,06,17.90
2013,06,23,12,07,17.90
2013,06,23,12,08,17.90
2013,06,23,12,09,17.90
2013,06,23,12,10,17.90
2013,06,23,12,11,17.90
2013,06,23,12,12,17.90
2013,06,23,12,13,17.90
2013,06,23,12,14,17.90
2013,06,23,12,15,17.90
2013,06,23,12,16,17.90
2013,06,23,12,17,17.90
2013,06,23,12,18,17.90
2013,06,23,12,19,17.90
2013,06,23,12,20,17.90
2013,06,23,12,21,17.90
2013,06,23,12,22,17.90
2013,06,23,12,23,18.00
2013,06,23,12,24,18.10
2013,06,23,12,25,18.10
2013,06,23,12,26,18.10
2013,06,23,12,27,18.00
2013,06,23,12,28,17.90
2013,06,23,12,29,17.90
2013,06,23,12,30,17.90
2013,06,23,12,31,17.90
2013,06,23,12,32,17.90
2013,06,23,12,33,17.90
2013,06,23,12,34,17.90
2013,06,23,12,35,18.00
2013,06,23,12,36,18.10
2013,06,23,12,37,18.10
2013,06,23,12,38,18.10
2013,06,23,12,39,18.10
2013,06,23,12,40,18.10
2013,06,23,12,41,18.20
2013,06,23,12,42,18.20
2013,06,23,12,43,18.20
2013,06,23,12,44,18.20
2013,06,23,12,45,18.20
2013,06,23,12,46,18.20
2013,06,23,12,47,18.20
2013,06,23,12,48,18.20
2013,06,23,12,49,18.20
2013,06,23,12,50,18.10
2013,06,23,12,51,18.10
2013,06,23,12,52,18.10
2013,06,23,12,53,18.10
2013,06,23,12,54,18.10
2013,06,23,12,55,18.10
2013,06,23,12,56,18.10
2013,06,23,12,57,18.10
2013,06,23,12,58,18.10
2013,06,23,12,59,18.10
2013,06,23,13,00,18.10
2013,06,23,13,01,18.10
2013,06,23,13,02,18.10
2013,06,23,13,03,18.10
2013,06,23,13,04,18.10
2013,06,23,13,05,18.00
2013,06,23,13,06,17.90
2013,06,23,13,07,18.00
2013,06,23,13,08,18.10
2013,06,23,13,09,18.10
2013,06,23,13,10,18.10
2013,06,23,13,11,18.10
2013,06,23,13,12,18.10
2013,06,23,13,13,18.10
2013,06,23,13,14,18.00
2013,06,23,13,15,17.90
2013,06,23,13,16,18.00
2013,06,23,13,17,18.10
2013,06,23,13,18,18.10
2013,06,23,13,19,18.10
2013,06,23,13,20,18.10
2013,06,23,13,21,18.10
2013,06,23,13,22,18.10
2013,06,23,13,23,18.10
2013,06,23,13,24,18.10
2013,06,23,13,25,18.20
2013,06,23,13,26,18.20
2013,06,23,13,27,18.20
2013,06,23,13,28,18.30
2013,06,23,13,29,18.40
2013,06,23,13,30,18.40
2013,06,23,13,31,18.40
2013,06,23,13,32,18.50
2013,06,23,13,33,18.50
2013,06,23,13,34,18.50
2013,06,23,13,35,18.50
2013,06,23,13,36,18.50
2013,06,23,13,37,18.40
2013,06,23,13,38,18.30
2013,06,23,13,39,18.20
2013,06,23,13,40,18.30
2013,06,23,13,41,18.30
2013,06,23,13,42,18.40
2013,06,23,13,43,18.40
2013,06,23,13,44,18.40
2013,06,23,13,45,18.40
2013,06,23,13,46,18.40
2013,06,23,13,47,18.40
2013,06,23,13,48,18.30
2013,06,23,13,49,18.30
2013,06,23,13,50,18.30
2013,06,23,13,51,18.30
2013,06,23,13,52,18.30
2013,06,23,13,53,18.30
2013,06,23,13,54,18.20
2013,06,23,13,55,18.20
2013,06,23,13,56,18.20
2013,06,23,13,57,18.20
2013,06,23,13,58,18.20
2013,06,23,13,59,18.20
2013,06,23,14,00,18.20
2013,06,23,14,01,18.20
2013,06,23,14,02,18.30
2013,06,23,14,03,18.40
2013,06,23,14,04,18.40
2013,06,23,14,05,18.40
2013,06,23,14,06,18.40
2013,06,23,14,07,18.40
2013,06,23,14,08,18.40
2013,06,23,14,09,18.40
2013,06,23,14,10,18.40
2013,06,23,14,11,18.40
2013,06,23,14,12,18.40
2013,06,23,14,13,18.30
2013,06,23,14,14,18.30
2013,06,23,14,15,18.30
2013,06,23,14,16,18.30
2013,06,23,14,17,18.40
2013,06,23,14,18,18.40
2013,06,23,14,19,18.40
2013,06,23,14,20,18.40
2013,06,23,14,21,18.40
2013,06,23,14,22,18.30
2013,06,23,14,23,18.30
2013,06,23,14,24,18.20
2013,06,23,14,25,18.20
2013,06,23,14,26,18.20
2013,06,23,14,27,18.20
2013,06,23,14,28,18.20
2013,06,23,14,29,18.10
2013,06,23,14,30,18.10
2013,06,23,14,31,18.10
2013,06,23,14,32,18.10
2013,06,23,14,33,18.10
2013,06,23,14,34,18.10
2013,06,23,14,35,18.10
2013,06,23,14,36,18.10
2013,06,23,14,37,18.10
2013,06,23,14,38,18.10
2013,06,23,14,39,18.10
2013,06,23,14,40,18.00
2013,06,23,14,41,17.90
2013,06,23,14,42,17.90
2013,06,23,14,43,18.10
2013,06,23,14,44,18.00
2013,06,23,14,45,17.90
2013,06,23,14,46,17.90
2013,06,23,14,47,17.90
2013,06,23,14,48,17.90
2013,06,23,14,49,17.90
2013,06,23,14,50,17.90
2013,06,23,14,51,18.00
2013,06,23,14,52,18.10
2013,06,23,14,53,18.10
2013,06,23,14,54,18.10
2013,06,23,14,55,18.10
2013,06,23,14,56,18.20
2013,06,23,14,57,18.20
2013,06,23,14,58,18.20
2013,06,23,14,59,18.20
2013,06,23,15,00,18.30
2013,06,23,15,01,18.30
2013,06,23,15,02,18.30
2013,06,23,15,03,18.30
2013,06,23,15,04,18.30
2013,06,23,15,05,18.40
2013,06,23,15,06,18.40
2013,06,23,15,07,18.40
2013,06,23,15,08,18.50
2013,06,23,15,09,18.50
2013,06,23,15,10,18.60
2013,06,23,15,11,18.60
2013,06,23,15,12,18.60
2013,06,23,15,13,18.60
2013,06,23,15,14,18.60
2013,06,23,15,15,18.60
2013,06,23,15,16,18.70
2013,06,23,15,17,18.70
2013,06,23,15,18,18.80
2013,06,23,15,19,18.80
2013,06,23,15,20,18.90
2013,06,23,15,21,18.90
2013,06,23,15,22,18.90
2013,06,23,15,23,19.00
2013,06,23,15,24,19.10
2013,06,23,15,25,19.10
2013,06,23,15,26,19.20
2013,06,23,15,27,19.20
2013,06,23,15,28,19.20
2013,06,23,15,29,19.20
2013,06,23,15,30,19.20
2013,06,23,15,31,19.20
2013,06,23,15,32,19.20
2013,06,23,15,33,19.20
2013,06,23,15,34,19.10
2013,06,23,15,35,19.10
2013,06,23,15,36,19.10
2013,06,23,15,37,19.10
2013,06,23,15,38,19.10
2013,06,23,15,39,19.10
2013,06,23,15,40,19.10
2013,06,23,15,41,19.10
2013,06,23,15,42,19.10
2013,06,23,15,43,19.00
2013,06,23,15,44,18.90
2013,06,23,15,45,18.90
2013,06,23,15,46,18.90
2013,06,23,15,47,18.90
2013,06,23,15,48,18.90
2013,06,23,15,49,18.90
2013,06,23,15,50,18.90
2013,06,23,15,51,19.00
2013,06,23,15,52,19.10
2013,06,23,15,53,19.10
2013,06,23,15,54,19.10
2013,06,23,15,55,19.10
2013,06,23,15,56,19.10
2013,06,23,15,57,19.10
2013,06,23,15,58,19.10
2013,06,23,15,59,19.10
2013,06,23,16,00,19.00
2013,06,23,16,01,19.10
2013,06,23,16,02,19.10
2013,06,23,16,03,19.10
2013,06,23,16,04,19.10
2013,06,23,16,05,19.10
2013,06,23,16,06,19.10
2013,06,23,16,07,19.00
2013,06,23,16,08,18.90
2013,06,23,16,09,18.90
2013,06,23,16,10,18.90
2013,06,23,16,11,18.90
2013,06,23,16,12,18.90
2013,06,23,16,13,18.90
2013,06,23,16,14,18.90
2013,06,23,16,15,19.00
2013,06,23,16,16,19.10
2013,06,23,16,17,19.10
2013,06,23,16,18,19.10
2013,06,23,16,19,19.10
2013,06,23,16,20,19.10
2013,06,23,16,21,19.10
2013,06,23,16,22,19.10
2013,06,23,16,23,19.10
2013,06,23,16,24,19.10
2013,06,23,16,25,19.10
2013,06,23,16,26,19.10
2013,06,23,16,27,19.00
2013,06,23,16,28,18.90
2013,06,23,16,29,18.90
2013,06,23,16,30,18.90
2013,06,23,16,31,18.80
2013,06,23,16,32,18.80
2013,06,23,16,33,18.80
2013,06,23,16,34,18.80
2013,06,23,16,35,18.80
2013,06,23,16,36,18.80
2013,06,23,16,37,18.80
2013,06,23,16,38,18.80
2013,06,23,16,39,18.80
2013,06,23,16,40,18.80
2013,06,23,16,41,18.80
2013,06,23,16,42,18.80
2013,06,23,16,43,18.80
2013,06,23,16,44,18.80
2013,06,23,16,45,18.80
2013,06,23,16,46,18.80
2013,06,23,16,47,18.80
2013,06,23,16,48,18.90
2013,06,23,16,49,18.90
2013,06,23,16,50,18.90
2013,06,23,16,51,18.90
2013,06,23,16,52,18.90
2013,06,23,16,53,18.90
2013,06,23,16,54,18.90
2013,06,23,16,55,18.90
2013,06,23,16,56,18.90
2013,06,23,16,57,18.90
2013,06,23,16,58,18.90
2013,06,23,16,59,18.90
2013,06,23,17,00,18.90
2013,06,23,17,01,18.90
2013,06,23,17,02,18.90
2013,06,23,17,03,18.90
2013,06,23,17,04,18.80
2013,06,23,17,05,18.80
2013,06,23,17,06,18.80
2013,06,23,17,07,18.80
2013,06,23,17,08,18.90
2013,06,23,17,09,18.90
2013,06,23,17,10,18.90
2013,06,23,17,11,18.90
2013,06,23,17,12,18.90
2013,06,23,17,13,18.90
2013,06,23,17,14,18.90
2013,06,23,17,15,18.80
2013,06,23,17,16,18.80
2013,06,23,17,17,18.80
2013,06,23,17,18,18.90
2013,06,23,17,19,18.90